This is the latest recevied weather packets stored in our database for station/object SP1BMW-13. If no packets are shown the sender has not sent any weather packets the latest 10 day(s).
| Time | Temp. | Humidity | Pressure | Rain* | Wind** | Luminosity | Snow |
|---|---|---|---|---|---|---|---|
| 1788064417 | 18.33° C | 69% | 1008.6 hPa | 0 mm | 0.45 m/s, 10° | 14 W/m² | - |
| 1788064356 | 18.33° C | 69% | 1008.6 hPa | 0 mm | 0.45 m/s, 302° | 13 W/m² | - |
| 1788064297 | 18.33° C | 69% | 1008.4 hPa | 0 mm | 0 m/s | 13 W/m² | - |
| 1788064238 | 18.33° C | 69% | 1008.6 hPa | 0 mm | 0 m/s | 12 W/m² | - |
| 1788064176 | 18.33° C | 69% | 1008.6 hPa | 0 mm | 0.45 m/s, 358° | 12 W/m² | - |
| 1788064117 | 18.33° C | 69% | 1008.4 hPa | 0 mm | 1.34 m/s, 25° | 12 W/m² | - |
| 1788064057 | 18.33° C | 69% | 1008.5 hPa | 0 mm | 0 m/s | 11 W/m² | - |
| 1788063997 | 18.33° C | 69% | 1008.5 hPa | 0 mm | 0 m/s | 10 W/m² | - |
| 1788063937 | 18.89° C | 69% | 1008.4 hPa | 0 mm | 0.45 m/s, 20° | 10 W/m² | - |
| 1788063880 | 18.89° C | 69% | 1008.2 hPa | 0 mm | 0 m/s | 9 W/m² | - |
| 1788063817 | 18.89° C | 69% | 1008.5 hPa | 0 mm | 0 m/s | 8 W/m² | - |
| 1788063757 | 18.89° C | 69% | 1008.5 hPa | 0 mm | 0.45 m/s, 351° | 8 W/m² | - |
| 1788063697 | 18.33° C | 69% | 1008.5 hPa | 0 mm | 0 m/s | 8 W/m² | - |
| 1788063637 | 18.33° C | 69% | 1008.4 hPa | 0 mm | 0.45 m/s, 77° | 7 W/m² | - |
| 1788063577 | 18.33° C | 69% | 1008.5 hPa | 0 mm | 0 m/s | 7 W/m² | - |
| 1788063517 | 18.33° C | 69% | 1008.6 hPa | 0 mm | 0.89 m/s, 165° | 7 W/m² | - |
| 1788063457 | 18.33° C | 70% | 1008.5 hPa | 0 mm | 0.45 m/s, 352° | 6 W/m² | - |
| 1788063397 | 18.33° C | 70% | 1008.7 hPa | 0 mm | 0 m/s | 6 W/m² | - |
| 1788063337 | 18.33° C | 70% | 1008.6 hPa | 0 mm | 0.45 m/s, 40° | 5 W/m² | - |
| 1788063277 | 18.33° C | 69% | 1008.4 hPa | 0 mm | 1.34 m/s, 31° | 5 W/m² | - |
| 1788063217 | 18.33° C | 70% | 1008.6 hPa | 0 mm | 0.45 m/s, 34° | 5 W/m² | - |
| 1788063160 | 18.33° C | 70% | 1008.7 hPa | 0 mm | 0.45 m/s, 58° | 4 W/m² | - |
| 1788063100 | 18.33° C | 70% | 1008.7 hPa | 0 mm | 0 m/s | 4 W/m² | - |
| 1788063037 | 18.33° C | 70% | 1008.8 hPa | 0 mm | 0.89 m/s, 49° | 4 W/m² | - |
| 1788062977 | 18.33° C | 70% | 1008.7 hPa | 0 mm | 0.89 m/s, 328° | 3 W/m² | - |
* Rain latest hour (hover to see other rain measurements)
** Current wind speed in m/s (hover to see current wind gust speed)